Current Version              Previous Version:    01  02  03  04  05  06  07  08  09  10  11  12  13  14  15  16  17  18  19  20  21  22  23  24  25  26  27  28  29  30  
   31  32  33  34  35  36  37  38  39  40  41  42  43  44  45  46  47  48  49  50  51  52  53  54  55  56  57  58  59  60  

[Printable]
027
ASUS44 KEWX 211810
RWRTX
SOUTH TEXAS REGIONAL WEATHER ROUNDUP
NATIONAL WEATHER SERVICE AUSTIN/SAN ANTONIO TX
100 PM CDT TUE OCT 21 2014

NOTE: "FAIR" INDICATED FEW OR NO CLOUDS BELOW 12,000 FEET WITH NO
SIGNIFICANT WEATHER AND/OR OBSTRUCTIONS TO VISIBILITY.

* - THESE STATIONS ARE NOT NWS OR FAA STATIONS...AND ARE NOT SUBJECT
    TO NWS AND FAA QUALITY CONTROL.

TXZ171-172-183>190-211900-
TEXAS HILL COUNTRY AND EDWARDS PLATEAU

CITY           SKY/WX    TMP DP  RH WIND       PRES   REMARKS
JUNCTION       SUNNY     77  55  46 VRB6      30.08F
6HR MIN TEMP:  52; 6HR MAX TEMP:  77;

*LLANO         MOSUNNY   79  57  47 E6        30.11F
BURNET         SUNNY     76  55  48 E7        30.10F
6HR MIN TEMP:  56; 6HR MAX TEMP:  77;

*HORSESHOE BAY SUNNY     77  56  48 NE3       30.08F
6HR MIN TEMP:  55; 6HR MAX TEMP:  78;

*KERRVILLE     SUNNY     76  58  53 E6        30.08F
6HR MIN TEMP:  52; 6HR MAX TEMP:  76;

*FREDERICKSBRG MOSUNNY   74  57  54 E9        30.09F
6HR MIN TEMP:  53; 6HR MAX TEMP:  74;

*ROCKSPRINGS   SUNNY     75  55  50 E5        30.10F
*BOERNE STAGE  SUNNY     79  54  41 NE6       30.08F
*CASTROVILLE   SUNNY     81  53  37 E8        30.05F
HONDO          SUNNY     80  57  45 E12       30.06F
6HR MIN TEMP:  55; 6HR MAX TEMP:  80;

*UVALDE        CLOUDY    79  60  52 E10       30.05F
6HR MIN TEMP:  65; 6HR MAX TEMP:  79;

DEL RIO        PTSUNNY   78  62  57 E13       30.03F
6HR MIN TEMP:  68; 6HR MAX TEMP:  78;

LAUGHLIN AFB   PTSUNNY   76  62  61 SE12      30.03F
6HR MIN TEMP:  67; 6HR MAX TEMP:  76;

CARRIZO SPRGS  CLOUDY    79  61  53 E3        30.02F
$$

TXZ173-191>194-202-209-217>225-228-211900-
CENTRAL AND SOUTH CENTRAL TEXAS

CITY           SKY/WX    TMP DP  RH WIND       PRES   REMARKS
GEORGETOWN     SUNNY     75  59  57 NE9       30.08F
AUSTIN/BERGSTM MOSUNNY   78  59  51 NE12      30.06F
6HR MIN TEMP:  54; 6HR MAX TEMP:  78;

AUSTIN/MABRY   SUNNY     78  59  51 VRB5      30.08F
6HR MIN TEMP:  58; 6HR MAX TEMP:  78;

*AUSTIN/EXEC   SUNNY     77  57  50 NE7       30.08F
*LAGO VISTA    SUNNY     78  56  47 NE6       30.09F
6HR MIN TEMP:  60; 6HR MAX TEMP:  78;

SAN MARCOS     SUNNY     81  55  41 E9G17     30.07F
NEW BRAUNFELS  SUNNY     82  56  40 E13       30.04F
6HR MIN TEMP:  62; 6HR MAX TEMP:  82;

RANDOLPH AFB   SUNNY     80  53  40 VRB7G18   30.05F
6HR MIN TEMP:  60; 6HR MAX TEMP:  80;

PT SAN ANTONIO SUNNY     80  57  45 NE10      30.03F
6HR MIN TEMP:  61; 6HR MAX TEMP:  80;

SAN ANTONIO    MOSUNNY   81  54  39 E8        30.05F
6HR MIN TEMP:  62; 6HR MAX TEMP:  81;

STINSON FIELD  SUNNY     82  55  39 E13       30.03
6HR MIN TEMP:  62; 6HR MAX TEMP:  82;

*PLEASANTON    SUNNY     82  56  41 E9G16     30.04F
6HR MIN TEMP:  58; 6HR MAX TEMP:  82;

*LA GRANGE     SUNNY     79  57  46 NE7       30.04F HAZE
6HR MIN TEMP:  56; 6HR MAX TEMP:  79;

*GIDDINGS      SUNNY     78  53  42 NE7       30.10F
6HR MIN TEMP:  56; 6HR MAX TEMP:  78;

*GONZALES      SUNNY     81  57  43 NE7       30.04F
6HR MIN TEMP:  62; 6HR MAX TEMP:  81;

$$

TXZ163>164-176>182-195>201-210>213-226-227-235-211900-
SOUTHEAST TEXAS

CITY           SKY/WX    TMP DP  RH WIND       PRES   REMARKS
COLLEGE STN    SUNNY     77  54  44 VRB3      30.07F
6HR MIN TEMP:  56; 6HR MAX TEMP:  77;

*BRYAN         SUNNY     77  54  44 E6        30.09F
6HR MIN TEMP:  54; 6HR MAX TEMP:  77;

*CALDWELL      SUNNY     77  52  41 E6        30.10F
*CROCKETT      SUNNY     81  61  50 N3        30.11F
*BRENHAM       SUNNY     80  53  37 E7        30.06F
6HR MIN TEMP:  55; 6HR MAX TEMP:  80;

HUNTSVILLE     SUNNY     78  52  40 E5        30.07F
6HR MIN TEMP:  50; 6HR MAX TEMP:  79;

CONROE         SUNNY     78  51  38 VRB7      30.07F
6HR MIN TEMP:  51; 6HR MAX TEMP:  78;

HOUSTON BUSH   SUNNY     79  55  43 E12       30.05F
6HR MIN TEMP:  55; 6HR MAX TEMP:  79;

HOUSTON HOBBY  SUNNY     79  51  37 NE12      30.04F
6HR MIN TEMP:  61; 6HR MAX TEMP:  79;

*HOUSTON SW AP SUNNY     74  52  45 NE8       30.04F
6HR MIN TEMP:  53; 6HR MAX TEMP:  74;

PEARLAND       SUNNY     79  54  41 E12       30.05F
6HR MIN TEMP:  60; 6HR MAX TEMP:  79;

HOUSTON HOOKS  SUNNY     80  54  40 NE7       30.06F
6HR MIN TEMP:  55; 6HR MAX TEMP:  80;

ELLINGTON FLD  SUNNY     77  55  47 E12       30.06F
SUGAR LAND     SUNNY     80  53  39 E10       30.04F
6HR MIN TEMP:  60; 6HR MAX TEMP:  80;

*HOUSTON EXEC  SUNNY     77 N/A N/A NE7       30.06F
*CLEVELAND MUN SUNNY     78  57  48 CALM      30.07F
6HR MIN TEMP:  52; 6HR MAX TEMP:  78;

*WHARTON       SUNNY     81  49  32 E9        30.03F
6HR MIN TEMP:  58; 6HR MAX TEMP:  81;

*COLUMBUS      FAIR      80  55  41 NE6       30.04F
6HR MIN TEMP:  55; 6HR MAX TEMP:  80;

$$

TXZ214>216-236>238-211900-
THE UPPER TEXAS COAST

CITY           SKY/WX    TMP DP  RH WIND       PRES   REMARKS
*ORANGE        SUNNY     78  51  38 NE10      30.07F
PORT ARTHUR    SUNNY     80  54  40 NE9G17    30.04F
6HR MIN TEMP:  56; 6HR MAX TEMP:  80;

GALVESTON      SUNNY     78  64  61 NE13      30.04F
6HR MIN TEMP:  67; 6HR MAX TEMP:  79;

ANGLETON       SUNNY     80  58  46 NE9       30.03F
6HR MIN TEMP:  58; 6HR MAX TEMP:  80;

*BAY CITY        N/A     81  60  48 E9        30.02F
PALACIOS       SUNNY     81  64  56 E10       30.02F
6HR MIN TEMP:  62; 6HR MAX TEMP:  82;

$$

TXZ229>234-239>247-211900-
TEXAS COASTAL BEND AND RIO GRANDE PLAINS

CITY           SKY/WX    TMP DP  RH WIND       PRES   REMARKS
VICTORIA       SUNNY     84  58  40 E9G17     30.02F
6HR MIN TEMP:  61; 6HR MAX TEMP:  84;

*BEEVILLE      SUNNY     83  60  45 E10G17    30.01F
6HR MIN TEMP:  65; 6HR MAX TEMP:  83;

ROCKPORT       SUNNY     82  69  64 E15       30.00F
6HR MIN TEMP:  70; 6HR MAX TEMP:  82;

*PORT ARANSAS  MOSUNNY   80  69  69 E15       29.99F
*PORT LAVACA   SUNNY     80  64  56 NE10      30.02F
6HR MIN TEMP:  65; 6HR MAX TEMP:  81;

*INGLESIDE     PTSUNNY   83  69  62 NE14      29.99F
CORPUS CHRISTI PTSUNNY   82  69  64 NE14      29.99F
6HR MIN TEMP:  70; 6HR MAX TEMP:  82;

CORPUS NAS     MOSUNNY   82  71  69 NE16      29.99F
6HR MIN TEMP:  73; 6HR MAX TEMP:  82;

*ROBSTOWN      RAIN      82  71  70 E15       29.99F
6HR MIN TEMP:  69; 6HR MAX TEMP:  82;

ALICE          MOSUNNY   83  68  60 E13       29.99F
6HR MIN TEMP:  68; 6HR MAX TEMP:  84;

KINGSVILLE NAS PTSUNNY   82  71  69 E15G23    29.98F
6HR MIN TEMP:  70; 6HR MAX TEMP:  84;

COTULLA        SUNNY     83  58  42 E10       30.02F
6HR MIN TEMP:  67; 6HR MAX TEMP:  84;

*FAITH RANCH   PTSUNNY   77  64  65 E8        30.03F
LAREDO         PTSUNNY   82  65  56 E12       30.02F
6HR MIN TEMP:  71; 6HR MAX TEMP:  83;

$$

TXZ248>255-211900-
DEEP SOUTH TEXAS

CITY           SKY/WX    TMP DP  RH WIND       PRES   REMARKS
BROWNSVILLE    CLOUDY    87  70  56 E14       29.92F HX  92
6HR MIN TEMP:  70; 6HR MAX TEMP:  88; 6HR PCP: TRACE;

PORT ISABEL    MOSUNNY   81  71  71 NE12      29.93F
6HR MIN TEMP:  74; 6HR MAX TEMP:  83; 6HR PCP:  0.15;

*SOUTH PADRE   MOSUNNY   82  72  69 E12G17    29.93F
HARLINGEN      PTSUNNY   82  71  69 E14       29.94F
6HR MIN TEMP:  69; 6HR MAX TEMP:  82; 6HR PCP:  0.06;

*HEBBRONVILLE  PTSUNNY   80  67  62 E12       30.00F